This is the latest recevied weather packets stored in our database for station/object LU4EGV-13. If no packets are shown the sender has not sent any weather packets the latest 10 day(s).
| Time | Temp. | Humidity | Pressure | Rain* | Wind** | Luminosity | Snow |
|---|---|---|---|---|---|---|---|
| 1778184782 | 14.44° C | 72% | 998.1 hPa | 0 mm | - | - | - |
| 1778184175 | 14.44° C | 71% | 997.3 hPa | 0 mm | - | - | - |
| 1778183569 | 15° C | 72% | 997 hPa | 0 mm | - | - | - |
| 1778182964 | 15° C | 71% | 997.5 hPa | 0 mm | - | - | - |
| 1778182358 | 15.56° C | 72% | 996.8 hPa | 0 mm | - | - | - |
| 1778181750 | 15.56° C | 72% | 997.4 hPa | 0 mm | - | - | - |
| 1778181146 | 15.56° C | 72% | 998.1 hPa | 0 mm | - | - | - |
| 1778180540 | 15.56° C | 72% | 998.6 hPa | 0 mm | - | - | - |
| 1778179933 | 15.56° C | 73% | 998.7 hPa | 0 mm | - | - | - |
| 1778179326 | 15.56° C | 72% | 998.8 hPa | 0 mm | - | - | - |
| 1778178720 | 15.56° C | 73% | 999.4 hPa | 0 mm | - | - | - |
| 1778178114 | 15.56° C | 73% | 1000.4 hPa | 0 mm | - | - | - |
| 1778177508 | 15.56° C | 76% | 999.8 hPa | 0 mm | - | - | - |
| 1778176902 | 15° C | 76% | 999.6 hPa | 0 mm | - | - | - |
| 1778176297 | 15° C | 75% | 999.2 hPa | 0 mm | - | - | - |
| 1778175689 | 15° C | 77% | 998.4 hPa | 0 mm | - | - | - |
| 1778175083 | 14.44° C | 77% | 998 hPa | 0 mm | - | - | - |
| 1778174479 | 14.44° C | 77% | 998.8 hPa | 0 mm | - | - | - |
| 1778173881 | 15° C | 77% | 999 hPa | 0 mm | - | - | - |
| 1778173275 | 15° C | 76% | 999.6 hPa | 0 mm | - | - | - |
| 1778172657 | 15° C | 76% | 1000.2 hPa | 0 mm | - | - | - |
| 1778172053 | 15.56° C | 76% | 1000.3 hPa | 0 mm | - | - | - |
| 1778171446 | 15.56° C | 80% | 999.6 hPa | 0 mm | - | - | - |
| 1778170840 | 15.56° C | 81% | 998.9 hPa | 0 mm | - | - | - |
| 1778170235 | 15.56° C | 82% | 998.8 hPa | 0 mm | - | - | - |
* Rain latest hour (hover to see other rain measurements)
** Current wind speed in m/s (hover to see current wind gust speed)